timestamp,wind_dir_avg,wind_spd_avg,wind_spd_max_dir,wind_spd_gust,battery_voltage,lat,long
2023-07-26 00:04:00+00:00,201.0,2.44,194.0,2.85,12.89,47.59359,-54.27349
2023-07-26 00:14:00+00:00,195.0,5.01,211.0,5.37,12.49,47.59359,-54.27349
2023-07-26 00:24:00+00:00,202.0,5.71,217.0,6.56,12.49,47.59359,-54.27349
2023-07-26 00:34:00+00:00,199.0,3.74,217.0,4.75,12.49,47.59359,-54.27349
2023-07-26 00:44:00+00:00,197.0,3.77,204.0,4.42,12.49,47.59359,-54.27349
2023-07-26 00:54:00+00:00,214.0,6.24,216.0,6.78,12.49,47.59359,-54.27349
2023-07-26 01:04:00+00:00,219.0,5.5,217.0,5.87,12.49,47.59359,-54.27349
2023-07-26 01:14:01+00:00,219.0,5.24,219.0,5.69,12.49,47.59359,-54.27349
2023-07-26 01:24:01+00:00,227.0,5.05,226.0,5.48,12.49,47.59359,-54.27349
2023-07-26 01:34:01+00:00,217.0,4.86,226.0,5.77,12.49,47.59359,-54.27349
2023-07-26 01:44:01+00:00,214.0,6.37,215.0,6.72,12.49,47.59359,-54.27349
2023-07-26 01:54:01+00:00,215.0,4.08,220.0,4.67,12.49,47.59359,-54.27349
2023-07-26 02:04:01+00:00,215.0,4.93,221.0,5.69,12.49,47.59359,-54.27349
2023-07-26 02:14:01+00:00,215.0,6.33,215.0,6.59,12.41,47.59359,-54.27349
2023-07-26 02:24:01+00:00,216.0,5.73,216.0,6.2,12.41,47.59359,-54.27349
2023-07-26 02:34:01+00:00,218.0,4.57,229.0,5.54,12.41,47.59359,-54.27349
2023-07-26 02:44:01+00:00,213.0,5.18,221.0,5.69,12.41,47.59359,-54.27349
2023-07-26 02:54:01+00:00,212.0,5.62,211.0,6.0,12.41,47.59359,-54.27349
2023-07-26 03:04:01+00:00,215.0,5.83,215.0,6.29,12.41,47.59359,-54.27349
2023-07-26 03:14:00+00:00,214.0,6.4,215.0,6.74,12.41,47.59359,-54.27349
2023-07-26 03:24:00+00:00,213.0,6.0,208.0,7.24,12.41,47.59359,-54.27349
2023-07-26 03:34:00+00:00,214.0,5.49,222.0,6.37,12.41,47.59359,-54.27349
2023-07-26 03:44:00+00:00,211.0,5.53,220.0,6.37,12.41,47.59359,-54.27349
2023-07-26 03:54:00+00:00,211.0,5.76,212.0,6.69,12.41,47.59359,-54.27349
2023-07-26 04:04:00+00:00,209.0,6.0,212.0,6.77,12.41,47.59359,-54.27349
2023-07-26 04:14:00+00:00,207.0,6.05,211.0,6.92,12.41,47.59359,-54.27349
2023-07-26 04:24:00+00:00,207.0,5.74,209.0,6.81,12.41,47.59359,-54.27349
2023-07-26 04:34:00+00:00,211.0,5.82,216.0,6.87,12.41,47.59359,-54.27349
2023-07-26 04:44:00+00:00,216.0,5.22,219.0,5.63,12.41,47.59359,-54.27349
2023-07-26 04:54:00+00:00,216.0,4.75,214.0,5.21,12.41,47.59359,-54.27349
2023-07-26 05:04:00+00:00,220.0,5.62,217.0,6.31,12.41,47.59359,-54.27349
2023-07-26 05:14:00+00:00,214.0,6.06,214.0,6.52,12.41,47.59359,-54.27349
2023-07-26 05:24:00+00:00,217.0,5.08,219.0,5.51,12.41,47.59359,-54.27349
2023-07-26 05:34:00+00:00,206.0,5.69,210.0,6.5,12.41,47.59359,-54.27349
2023-07-26 05:44:00+00:00,209.0,6.89,210.0,7.66,12.41,47.59359,-54.27349
2023-07-26 05:54:00+00:00,208.0,6.9,209.0,7.35,12.41,47.59359,-54.27349
2023-07-26 06:04:00+00:00,211.0,7.78,211.0,8.29,12.41,47.59359,-54.27349
2023-07-26 06:14:00+00:00,202.0,7.76,205.0,8.36,12.33,47.59359,-54.27349
2023-07-26 06:24:00+00:00,213.0,8.41,212.0,8.82,12.33,47.59359,-54.27349
2023-07-26 06:34:00+00:00,213.0,7.54,214.0,8.18,12.33,47.59359,-54.27349
2023-07-26 06:44:00+00:00,212.0,7.06,213.0,7.65,12.33,47.59359,-54.27349
2023-07-26 06:54:00+00:00,209.0,5.7,212.0,6.18,12.33,47.59359,-54.27349
2023-07-26 07:04:00+00:00,209.0,6.61,208.0,7.34,12.33,47.59359,-54.27349
2023-07-26 07:14:01+00:00,216.0,4.56,225.0,5.67,12.33,47.59359,-54.27349
2023-07-26 07:24:01+00:00,218.0,3.64,223.0,4.63,12.33,47.59359,-54.27349
2023-07-26 07:34:01+00:00,212.0,4.11,213.0,4.67,12.33,47.59359,-54.27349
2023-07-26 07:44:01+00:00,200.0,4.13,203.0,4.49,12.33,47.59359,-54.27349
2023-07-26 07:54:01+00:00,206.0,5.81,205.0,6.25,12.33,47.59359,-54.27349
2023-07-26 08:04:01+00:00,202.0,5.47,201.0,5.89,12.33,47.59359,-54.27349
2023-07-26 08:14:00+00:00,204.0,6.07,209.0,6.67,12.33,47.59359,-54.27349
2023-07-26 08:24:00+00:00,198.0,5.71,200.0,6.51,12.33,47.59359,-54.27349
2023-07-26 08:34:00+00:00,200.0,6.38,201.0,6.74,12.33,47.59359,-54.27349
2023-07-26 08:44:00+00:00,209.0,6.53,214.0,6.79,12.33,47.59359,-54.27349
2023-07-26 08:54:00+00:00,209.0,6.91,220.0,8.41,12.33,47.59359,-54.27349
2023-07-26 09:04:00+00:00,195.0,6.39,211.0,7.7,12.33,47.59359,-54.27349
2023-07-26 09:14:00+00:00,315.0,0.01,165.0,0.0,12.41,47.59359,-54.27349
2023-07-26 09:24:00+00:00,315.0,0.01,165.0,0.0,12.41,47.59359,-54.27349
2023-07-26 09:34:00+00:00,211.0,5.38,213.0,5.91,12.41,47.59359,-54.27349
2023-07-26 09:44:00+00:00,213.0,6.02,215.0,6.77,12.41,47.59359,-54.27349
2023-07-26 09:54:00+00:00,215.0,5.31,218.0,6.18,12.41,47.59359,-54.27349
2023-07-26 10:04:00+00:00,217.0,4.73,222.0,5.46,12.41,47.59359,-54.27349
2023-07-26 10:14:00+00:00,206.0,5.08,204.0,5.98,13.21,47.59359,-54.27349
2023-07-26 10:24:00+00:00,211.0,6.83,209.0,7.64,13.21,47.59359,-54.27349
2023-07-26 10:34:00+00:00,207.0,6.57,206.0,7.32,13.21,47.59359,-54.27349
2023-07-26 10:44:00+00:00,207.0,7.19,207.0,7.9,13.21,47.59359,-54.27349
2023-07-26 10:54:00+00:00,208.0,6.44,204.0,7.39,13.21,47.59359,-54.27349
2023-07-26 11:04:00+00:00,216.0,6.04,226.0,7.28,13.21,47.59359,-54.27349
2023-07-26 11:14:00+00:00,212.0,6.69,228.0,8.33,13.6,47.59359,-54.27349
2023-07-26 11:24:00+00:00,210.0,7.24,217.0,8.02,13.6,47.59359,-54.27349
2023-07-26 11:34:00+00:00,211.0,7.55,221.0,8.3,13.6,47.59359,-54.27349
2023-07-26 11:44:00+00:00,213.0,7.62,221.0,8.68,13.6,47.59359,-54.27349
2023-07-26 11:54:00+00:00,208.0,6.8,210.0,7.33,13.6,47.59359,-54.27349
2023-07-26 12:04:00+00:00,208.0,6.37,209.0,6.83,13.6,47.59359,-54.27349
2023-07-26 12:14:00+00:00,207.0,5.99,212.0,6.88,13.84,47.59359,-54.27349
2023-07-26 12:24:00+00:00,208.0,7.28,222.0,8.66,13.84,47.59359,-54.27349
2023-07-26 12:34:00+00:00,210.0,9.17,223.0,10.6,13.84,47.59359,-54.27349
2023-07-26 12:44:00+00:00,210.0,6.46,205.0,7.31,13.84,47.59359,-54.27349
2023-07-26 12:54:00+00:00,208.0,7.69,206.0,8.29,13.84,47.59359,-54.27349
2023-07-26 13:04:00+00:00,203.0,8.71,203.0,9.46,13.84,47.59359,-54.27349
2023-07-26 13:14:00+00:00,210.0,8.28,225.0,10.95,14.24,47.59359,-54.27349
2023-07-26 13:24:00+00:00,205.0,7.71,205.0,8.55,14.24,47.59359,-54.27349
2023-07-26 13:34:00+00:00,213.0,8.65,224.0,10.35,14.24,47.59359,-54.27349
2023-07-26 13:44:00+00:00,203.0,7.9,203.0,8.86,14.24,47.59359,-54.27349
2023-07-26 13:54:00+00:00,199.0,7.77,203.0,8.49,14.24,47.59359,-54.27349
2023-07-26 14:04:00+00:00,204.0,8.45,207.0,9.29,14.24,47.59359,-54.27349
2023-07-26 14:14:00+00:00,201.0,7.41,201.0,7.94,13.92,47.59359,-54.27349
2023-07-26 14:24:00+00:00,203.0,7.41,205.0,7.89,13.92,47.59359,-54.27349
2023-07-26 14:34:00+00:00,201.0,7.53,201.0,8.38,13.92,47.59359,-54.27349
2023-07-26 14:44:00+00:00,195.0,8.51,197.0,9.35,13.92,47.59359,-54.27349
2023-07-26 14:54:00+00:00,209.0,9.04,227.0,11.32,13.92,47.59359,-54.27349
2023-07-26 15:04:00+00:00,200.0,8.47,203.0,9.28,13.92,47.59359,-54.27349
2023-07-26 15:14:00+00:00,201.0,8.38,197.0,9.78,13.92,47.59359,-54.27349
2023-07-26 15:24:00+00:00,208.0,10.32,218.0,12.54,13.92,47.59359,-54.27349
2023-07-26 15:34:00+00:00,208.0,10.46,217.0,12.58,13.92,47.59359,-54.27349
2023-07-26 15:44:00+00:00,211.0,10.93,219.0,12.75,13.92,47.59359,-54.27349
2023-07-26 15:54:00+00:00,203.0,9.53,208.0,10.6,13.92,47.59359,-54.27349
2023-07-26 16:04:00+00:00,202.0,9.27,201.0,10.54,13.92,47.59359,-54.27349
2023-07-26 16:14:00+00:00,198.0,9.13,200.0,9.97,14.24,47.59359,-54.27349
2023-07-26 16:24:00+00:00,209.0,10.33,217.0,11.99,14.24,47.59359,-54.27349
2023-07-26 16:34:00+00:00,218.0,10.48,231.0,12.26,14.24,47.59359,-54.27349
2023-07-26 16:44:00+00:00,224.0,10.18,231.0,12.14,14.24,47.59359,-54.27349
2023-07-26 16:54:00+00:00,225.0,10.84,231.0,12.85,14.24,47.59359,-54.27349
2023-07-26 17:04:00+00:00,226.0,11.04,231.0,12.81,14.24,47.59359,-54.27349
2023-07-26 17:14:00+00:00,224.0,10.57,229.0,12.77,14.16,47.59359,-54.27349
2023-07-26 17:24:00+00:00,220.0,9.92,230.0,12.79,14.16,47.59359,-54.27349
2023-07-26 17:34:00+00:00,219.0,9.18,231.0,11.86,14.16,47.59359,-54.27349
2023-07-26 17:44:00+00:00,209.0,9.46,215.0,11.28,14.16,47.59359,-54.27349
2023-07-26 17:54:00+00:00,217.0,10.2,224.0,11.81,14.16,47.59359,-54.27349
2023-07-26 18:04:00+00:00,218.0,11.36,219.0,12.9,14.16,47.59359,-54.27349
2023-07-26 18:14:01+00:00,218.0,11.13,215.0,12.88,13.76,47.59359,-54.27349
2023-07-26 18:24:01+00:00,225.0,8.64,225.0,11.07,13.76,47.59359,-54.27349
2023-07-26 18:34:01+00:00,218.0,8.87,229.0,11.62,13.76,47.59359,-54.27349
2023-07-26 18:44:01+00:00,218.0,8.99,228.0,11.45,13.76,47.59359,-54.27349
2023-07-26 18:54:01+00:00,219.0,11.88,221.0,13.05,13.76,47.59359,-54.27349
2023-07-26 19:04:01+00:00,216.0,10.7,215.0,12.43,13.76,47.59359,-54.27349
2023-07-26 19:14:00+00:00,214.0,9.73,212.0,11.66,13.53,47.59359,-54.27349
2023-07-26 19:24:00+00:00,218.0,9.87,209.0,12.95,13.53,47.59359,-54.27349
2023-07-26 19:34:00+00:00,217.0,10.03,216.0,11.57,13.53,47.59359,-54.27349
2023-07-26 19:44:00+00:00,213.0,9.71,214.0,11.18,13.53,47.59359,-54.27349
2023-07-26 19:54:00+00:00,215.0,9.86,218.0,10.69,13.53,47.59359,-54.27349
2023-07-26 20:04:00+00:00,212.0,9.62,210.0,11.11,13.53,47.59359,-54.27349
2023-07-26 20:14:00+00:00,213.0,9.1,216.0,10.3,13.6,47.59359,-54.27349
2023-07-26 20:24:00+00:00,211.0,10.95,208.0,11.77,13.6,47.59359,-54.27349
2023-07-26 20:34:00+00:00,212.0,10.1,207.0,11.41,13.6,47.59359,-54.27349
2023-07-26 20:44:00+00:00,211.0,9.73,213.0,10.94,13.6,47.59359,-54.27349
2023-07-26 20:54:00+00:00,209.0,9.31,208.0,10.66,13.6,47.59359,-54.27349
2023-07-26 21:04:00+00:00,209.0,9.25,211.0,10.34,13.6,47.59359,-54.27349
2023-07-26 21:14:00+00:00,206.0,8.97,211.0,9.7,13.6,47.59359,-54.27349
2023-07-26 21:24:00+00:00,206.0,9.91,208.0,10.87,13.6,47.59359,-54.27349
2023-07-26 21:34:00+00:00,207.0,10.36,209.0,11.44,13.6,47.59359,-54.27349
2023-07-26 21:44:00+00:00,206.0,9.23,206.0,9.98,13.6,47.59359,-54.27349
2023-07-26 21:54:00+00:00,203.0,8.35,199.0,9.3,13.6,47.59359,-54.27349
2023-07-26 22:04:00+00:00,203.0,8.17,202.0,8.96,13.6,47.59359,-54.27349
2023-07-26 22:14:00+00:00,210.0,8.83,209.0,9.8,13.05,47.59359,-54.27349
2023-07-26 22:24:00+00:00,207.0,8.28,208.0,9.25,13.05,47.59359,-54.27349
2023-07-26 22:34:00+00:00,207.0,8.14,208.0,9.04,13.05,47.59359,-54.27349
2023-07-26 22:44:00+00:00,208.0,8.13,208.0,8.87,13.05,47.59359,-54.27349
2023-07-26 22:54:00+00:00,208.0,8.85,209.0,9.96,13.05,47.59359,-54.27349
2023-07-26 23:04:00+00:00,208.0,9.54,211.0,10.93,13.05,47.59359,-54.27349
2023-07-26 23:14:00+00:00,210.0,8.43,212.0,9.69,12.57,47.59359,-54.27349
2023-07-26 23:24:00+00:00,212.0,6.81,208.0,7.74,12.57,47.59359,-54.27349
2023-07-26 23:34:00+00:00,214.0,6.14,213.0,6.85,12.57,47.59359,-54.27349
2023-07-26 23:44:00+00:00,210.0,7.87,211.0,8.42,12.57,47.59359,-54.27349
2023-07-26 23:54:00+00:00,213.0,7.51,215.0,7.94,12.57,47.59359,-54.27349
